Change the Weather History Date:

Saturday, October 23, 2010

  Actual Average Record
Temperature  
Mean Temperature 48 °F 44 °F  
Max Temperature 54 °F 60 °F 77 °F (2003)
Min Temperature 42 °F 29 °F 15 °F (2008)
Degree Days  
Heating Degree Days 17 21  
Month to date heating degree days 382  
Since 1 July heating degree days 606  
Cooling Degree Days 0 0  
Month to date cooling degree days 0  
Year to date cooling degree days 243  
Moisture  
Dew Point 41 °F    
Average Humidity 86    
Maximum Humidity 100    
Minimum Humidity 55    
Precipitation  
Precipitation 0.06 in 0.03 in 0.83 in (2000)
Month to date precipitation 1.04  
Year to date precipitation 12.92  
Sea Level Pressure  
Sea Level Pressure 29.95 in    
Wind  
Wind Speed 11 mph (WSW)    
Max Wind Speed 21 mph    
Max Gust Speed 28 mph    
Visibility 10 miles    
Events Rain    
T = Trace of Precipitation, MM = Missing Value Source: NWS Daily Summary

Daily Weather History Graph

Daily Weather History Graph

Search for Another Location

Airport or City:

Trip Planner

Search our weather history database for the weather conditions in past years. The results will help you decide how hot, cold, wet, or windy it might be!

Date:

Astronomy

Oct. 23, 2010 Rise Set
Actual Time 7:26 AM MDT 6:23 PM MDT
Civil Twilight 6:59 AM MDT 6:50 PM MDT
Nautical Twilight 6:29 AM MDT 7:20 PM MDT
Astronomical Twilight 5:59 AM MDT 7:50 PM MDT
Moon 6:31 PM MDT (10/23) 8:06 AM MDT (10/23)
Length of Visible Light 11h 50m
Length of Day
10h 57m
Full, 100% of the Moon is Illuminated
Oct 23
Full
Oct 30
Last Quarter
Nov 5
New
Nov 13
First Quarter
Nov 21
Full

Hourly Weather History & Observations

Time (MDT) Temp. Windchill Dew Point Humidity Pressure Visibility Wind Dir Wind Speed Gust Speed Precip Events Conditions
12:13 AM 42.8 °F 38.0 °F 41.0 °F 93% 29.96 in 10.0 mi SW 8.1 mph 17.3 mph 0.00 in Rain Light Rain
12:42 AM 42.8 °F 37.0 °F 41.0 °F 93% 29.96 in 10.0 mi WSW 10.4 mph - 0.00 in   Mostly Cloudy
12:53 AM 42.1 °F 35.7 °F 41.0 °F 96% 29.89 in 10.0 mi WSW 11.5 mph - 0.00 in   Mostly Cloudy
1:53 AM 42.1 °F 36.1 °F 41.0 °F 96% 29.90 in 10.0 mi WSW 10.4 mph - N/A   Overcast
2:53 AM 43.0 °F 36.8 °F 41.0 °F 93% 29.89 in 10.0 mi WSW 11.5 mph - N/A   Overcast
3:53 AM 43.0 °F 39.5 °F 42.1 °F 97% 29.88 in 10.0 mi SW 5.8 mph - N/A   Overcast
4:53 AM 43.0 °F 36.8 °F 41.0 °F 93% 29.88 in 10.0 mi WSW 11.5 mph - N/A   Overcast
5:04 AM 42.8 °F 37.5 °F 41.0 °F 93% 29.96 in 10.0 mi SW 9.2 mph - N/A   Overcast
5:16 AM 42.8 °F 36.2 °F 41.0 °F 93% 29.96 in 10.0 mi SW 12.7 mph - 0.00 in Rain Light Rain
5:44 AM 42.8 °F 37.0 °F 42.8 °F 100% 29.96 in 10.0 mi WSW 10.4 mph - 0.00 in Rain Light Rain
5:53 AM 43.0 °F 37.2 °F 42.1 °F 97% 29.90 in 10.0 mi SW 10.4 mph - 0.00 in Rain Light Rain
6:08 AM 42.8 °F 37.0 °F 42.8 °F 100% 29.97 in 10.0 mi WSW 10.4 mph - 0.00 in Rain Light Rain
6:15 AM 42.8 °F 37.5 °F 42.8 °F 100% 29.97 in 10.0 mi SW 9.2 mph - 0.00 in   Overcast
6:44 AM 42.8 °F 36.6 °F 42.8 °F 100% 29.98 in 10.0 mi WSW 11.5 mph - 0.00 in   Overcast
6:53 AM 43.0 °F 37.2 °F 41.0 °F 93% 29.92 in 10.0 mi WSW 10.4 mph - 0.00 in Rain Light Rain
7:08 AM 42.8 °F 37.5 °F 42.8 °F 100% 29.98 in 10.0 mi WSW 9.2 mph - 0.00 in Rain Light Rain
7:53 AM 43.0 °F 36.4 °F 41.0 °F 93% 29.94 in 8.0 mi WSW 12.7 mph - 0.01 in Rain Light Rain
8:53 AM 43.0 °F 37.2 °F 42.1 °F 97% 29.96 in 10.0 mi WSW 10.4 mph - 0.00 in   Mostly Cloudy
9:05 AM 44.6 °F 38.4 °F 41.0 °F 87% 30.01 in 10.0 mi WSW 12.7 mph - N/A   Overcast
9:24 AM 44.6 °F 38.8 °F 41.0 °F 87% 30.01 in 10.0 mi WSW 11.5 mph - N/A   Overcast
9:49 AM 44.6 °F 38.8 °F 41.0 °F 87% 30.02 in 10.0 mi SW 11.5 mph - N/A   Overcast
9:53 AM 44.1 °F 37.7 °F 42.1 °F 93% 29.96 in 10.0 mi SW 12.7 mph - N/A   Overcast
10:53 AM 48.0 °F - 41.0 °F 77% 29.94 in 10.0 mi West 17.3 mph - N/A   Overcast
11:21 AM 50.0 °F - 42.8 °F 76% 30.02 in 10.0 mi WSW 20.7 mph - N/A   Mostly Cloudy
11:53 AM 51.1 °F - 41.0 °F 68% 29.92 in 10.0 mi West 18.4 mph - N/A   Clear
12:53 PM 54.0 °F - 39.9 °F 59% 29.91 in 10.0 mi West 17.3 mph 26.5 mph N/A   Partly Cloudy
1:53 PM 52.0 °F - 37.9 °F 59% 29.91 in 10.0 mi West 17.3 mph 27.6 mph N/A   Overcast
2:53 PM 51.1 °F - 37.9 °F 61% 29.91 in 10.0 mi West 19.6 mph - N/A   Overcast
3:53 PM 54.0 °F - 37.9 °F 55% 29.88 in 10.0 mi West 20.7 mph 26.5 mph N/A   Partly Cloudy
4:53 PM 53.1 °F - 37.0 °F 55% 29.90 in 10.0 mi WSW 16.1 mph 27.6 mph N/A   Mostly Cloudy
5:53 PM 48.9 °F - 37.0 °F 64% 29.94 in 10.0 mi WNW 19.6 mph 25.3 mph 0.00 in   Mostly Cloudy
6:53 PM 48.0 °F - 37.0 °F 66% 29.95 in 10.0 mi West 16.1 mph - N/A   Overcast
7:53 PM 45.0 °F 38.9 °F 41.0 °F 86% 30.00 in 10.0 mi West 12.7 mph - 0.01 in Rain Light Rain
8:53 PM 44.1 °F 40.8 °F 44.1 °F 100% 30.01 in 10.0 mi SW 5.8 mph - 0.04 in   Overcast
9:53 PM 44.1 °F 39.5 °F 43.0 °F 96% 30.03 in 10.0 mi SW 8.1 mph - N/A   Partly Cloudy
10:53 PM 43.0 °F 37.7 °F 43.0 °F 100% 30.01 in 10.0 mi SW 9.2 mph - N/A   Clear
11:53 PM 42.1 °F 40.2 °F 39.9 °F 92% 30.01 in 10.0 mi SSW 3.5 mph - N/A   Overcast